Flag for U.S.A. Weather past 2 weeks in Racine, Wisconsin, U.S.A.

Now
65 °F

Clear.


Feels Like: 65 °F
Forecast: 62 / 79 °F
Wind: 5 mph from West

Location: Batten International Airport

Current Time: Sep 3, 2014 at 12:04:15 AM

Latest Report: Sep 2, 2014 at 10:53 PM


Visibility: 10 mi

Pressure: 29.95 "Hg

Humidity: 81%

Dew point: 59 °F

Location of RacineLocation

Historic Weather in Racine — Graph

°F

Racine temperature yesterday

Maximum temperature yesterday: 80 °F (at 2:53 PM)
Minimum temperature yesterday: 64 °F (at 6:53 AM)
Average temperature yesterday: 71 °F

Past Weeks' High & Low Weather Summary

 TemperatureHumidityPressure
High83 °F (Sep 1, 1:53 PM)97% (Aug 22, 4:53 AM)30.22 "Hg (Aug 22, 4:53 AM)
Low61 °F (Aug 28, 2:53 AM)44% (Sep 2, 3:53 PM)29.67 "Hg (Aug 19, 1:53 PM)
Average72 °F81%29.95 "Hg
* Reported Aug 18 10:53 PM — Sep 2 10:53 PM, Racine, Weather by CustomWeather, © 2014

Note: Actual official high and low records may vary slightly from our data, if they occured in-between our weather recording intervals... More about our weather records

Advertising

Racine weather history for previous 24 hours

 ConditionsComfort  
Time TempWeatherWind HumidityBarometerVisibility
10:53 PM
Sep 2
65 °FClear.5 mph81%29.95 "Hg10 mi
9:53 PM67 °FClear.6 mph76%29.93 "Hg10 mi
8:53 PM69 °FClear.5 mph70%29.93 "Hg10 mi
7:53 PM70 °FSunny.No wind68%29.90 "Hg10 mi
6:53 PM75 °FSunny.5 mph55%29.89 "Hg10 mi
5:53 PM77 °FSunny.7 mph52%29.89 "Hg10 mi
4:53 PM78 °FScattered clouds.9 mph50%29.90 "Hg10 mi
3:53 PM80 °FSunny.12 mph44%29.90 "Hg10 mi
2:53 PM80 °FPassing clouds.6 mph45%29.90 "Hg10 mi
1:53 PM79 °FOvercast.3 mph50%29.90 "Hg10 mi
12:53 PM78 °FPassing clouds.5 mph50%29.89 "Hg10 mi
11:53 AM77 °FSunny.6 mph52%29.89 "Hg10 mi
10:53 AM77 °FPassing clouds.6 mph56%29.90 "Hg10 mi
9:53 AM75 °FSunny.No wind55%29.90 "Hg10 mi
8:53 AM71 °FSunny.3 mph78%29.89 "Hg10 mi
7:53 AM67 °FSunny.5 mph87%29.88 "Hg10 mi
6:53 AM64 °FClear.5 mph94%29.88 "Hg10 mi
5:53 AM65 °FClear.7 mph91%29.87 "Hg10 mi
4:53 AM65 °FPassing clouds.6 mph91%29.88 "Hg10 mi
3:53 AM66 °FClear.5 mph90%29.86 "Hg10 mi
2:53 AM66 °FClear.6 mph93%29.85 "Hg10 mi
1:53 AM66 °FClear.3 mph93%29.85 "Hg10 mi
12:53 AM67 °FPassing clouds.6 mph93%29.86 "Hg10 mi
Weather by CustomWeather, © 2014

See weather overviewHow to use our weather pages